Location: Caltech
(34.1382°N, 118.1253°W)
Time: 14:30:30
(UTC-07:00)

Oscar 10/S400 - Visible Passes

Search period start: 24 April 2014 00:00
Search period end: 04 May 2014 00:00
Orbit: 4091 x 35357 km, 26.4° (Epoch: 21 April)

Date Brightness Start Highest point End Pass type
(mag) Time Alt. Az. Time Alt. Az. Time Alt. Az.
28 Apr ? 05:09:48 13° WSW 05:37:15 73° SSE 15:20:54 10° SSE visible
29 Apr ? 04:28:54 22° SW 04:49:57 68° SSE 14:29:36 10° SE visible
30 Apr ? 03:48:00 30° SW 04:03:45 62° SSE 13:34:30 10° SE visible
01 May ? 03:07:05 37° SSW 03:18:20 55° SSE 12:32:32 10° SE visible
02 May ? 07:37:35 10° E 02:33:26 47° SE 11:12:58 10° ESE visible
03 May ? 01:45:14 38° SSE 01:48:52 39° SE 02:36:56 10° ENE visible
